{"data":{"norad_id":62682,"intl_designator":"2025-009CB","name":"FOREST-3","alt_names":[],"object_type":"PAYLOAD","status":"ACTIVE","operator":null,"country":"GER","launch_date":"2025-01-14","launch_site_code":"AFWTR","launch_vehicle":null,"mission":null,"orbit_class":"UNKNOWN","rcs_meters":null,"size_class":null,"mass_kg":null,"dimensions":null,"purposes":[],"wikipedia_slug":null,"has_3d_model":false,"image_url":null,"decayed_at":null,"tle_current":{"epoch":"2026-05-25T04:40:01.843392Z","epoch_age_seconds":51636,"freshness":"FRESH","line1":"1 62682U 25009CB  26145.19446578  .00005532  00000+0  22810-3 0  9992","line2":"2 62682  97.3905 224.9643 0006436  74.1720 286.0226 15.24457051132937","mean_motion":15.24457051,"eccentricity":0.0006436,"inclination_deg":97.3905,"raan_deg":224.9643,"arg_perigee_deg":74.172,"mean_anomaly_deg":286.0226,"bstar":0.0002281,"rev_number":13293,"period_min":94.459860253551,"perigee_km":487.99440093099,"apogee_km":496.83817712462,"semimajor_km":6870.5532890278,"source":"CELESTRAK","updated_at":"2026-05-25T13:38:03.168636Z"}}}